Theta_e
315 314 315 315 315 315 315 315 315 315 316 316 316 316 316 316 317 318 319 320 320 322 325 327 328 328 328 329 329 330 329 329 329 329 329 329 328 328 328 328 328 328 328 329 329 329 329 329 329 330 330 330 331 330 330 330 330 329 327 327 328 329 330 330 329 329 330 330 329 330 330 329 329 329 329 328 327 326 325 325 324 318 308 304 305
315 314 314 314 314 314 314 315 315 315 315 315 315 315 315 315 315 316 317 318 319 320 322 325 326 327 328 328 328 328 329 329 329 329 329 329 329 329 329 328 328 328 328 328 328 329 329 329 329 329 329 329 330 330 330 330 330 329 327 327 328 329 330 330 330 329 329 329 329 330 330 329 329 329 329 328 327 326 326 325 324 321 312 305 305
314 314 314 314 314 313 313 314 314 314 314 314 314 314 313 313 314 315 316 317 318 319 320 321 323 325 326 327 327 327 328 328 328 328 328 329 329 329 329 329 329 329 329 329 329 329 329 329 329 328 327 327 328 329 330 330 330 329 328 327 328 329 330 331 330 329 329 329 328 329 329 329 329 329 329 328 328 327 326 326 325 323 318 309 304
314 313 313 313 313 313 313 313 313 313 314 314 314 313 313 313 314 316 316 317 318 318 318 319 321 322 323 325 326 326 326 326 326 327 327 328 328 328 329 329 329 329 329 329 329 329 328 329 329 329 327 327 329 329 330 330 330 330 329 328 328 329 330 330 330 330 329 328 328 328 329 329 328 329 328 328 327 327 327 326 324 323 321 314 306
312 312 312 312 312 312 312 312 312 312 313 313 313 313 313 314 315 316 316 317 317 318 318 318 318 319 320 321 323 324 324 325 325 326 326 327 328 328 328 328 329 329 329 329 329 329 328 329 330 329 328 327 328 329 330 331 330 330 329 329 328 328 329 330 330 330 329 328 328 328 328 329 328 328 328 327 327 326 326 325 324 323 322 317 309
311 311 311 311 311 311 311 311 311 311 312 312 312 313 313 314 315 315 316 316 317 317 317 317 318 318 318 319 320 320 321 323 324 325 325 326 327 327 327 328 328 328 328 328 329 329 329 329 329 329 328 327 327 327 329 330 329 329 328 328 328 328 329 329 330 330 330 329 329 328 328 328 328 327 328 327 327 327 326 325 325 324 322 319 314
310 310 310 310 309 309 310 310 310 310 310 310 311 312 314 314 314 314 315 315 315 316 316 316 316 317 317 317 318 318 318 320 321 322 323 324 326 326 327 327 328 328 328 328 328 328 328 329 330 329 328 328 328 328 328 328 328 328 328 328 328 329 329 329 329 330 330 329 330 328 328 328 328 327 327 328 327 327 326 326 325 323 321 319 316
310 309 309 308 308 308 308 308 308 308 308 308 309 310 312 313 313 313 314 314 314 314 315 315 315 316 316 316 317 317 317 318 318 319 320 322 323 325 326 326 327 328 328 328 328 328 328 329 329 328 328 328 328 328 328 328 328 327 327 327 328 329 330 329 329 330 330 329 329 328 328 328 327 327 327 327 326 325 325 326 324 322 319 317 316
309 308 308 308 307 307 307 307 307 307 307 307 308 308 309 310 311 312 312 312 313 313 314 314 315 315 316 316 316 316 317 317 317 317 318 319 320 322 323 324 325 326 327 328 328 328 328 328 328 328 328 328 327 327 327 327 328 328 327 327 327 328 329 329 330 330 330 329 329 327 327 327 328 327 327 327 326 324 324 324 324 323 320 318 317
308 307 307 307 307 307 307 307 307 307 307 306 307 307 307 307 309 310 310 311 312 312 312 313 314 314 315 315 316 316 316 316 316 316 317 317 318 319 320 321 322 323 325 326 327 327 327 328 328 329 329 328 327 327 327 328 328 328 327 327 328 328 328 328 329 330 329 329 329 328 327 327 328 328 327 326 325 324 323 322 323 322 320 318 317
306 306 306 306 306 306 306 306 306 306 306 306 306 305 305 306 306 307 308 309 310 311 311 312 312 313 313 314 314 315 315 315 315 315 316 317 317 318 319 319 320 321 323 324 325 326 326 327 327 328 328 328 327 328 328 328 328 327 327 328 328 328 329 328 329 329 329 328 328 328 327 327 328 327 327 326 324 324 323 322 321 321 319 318 317
305 305 305 306 306 306 305 305 306 306 305 305 305 305 305 304 305 305 306 307 308 309 310 310 311 311 311 312 313 313 313 314 315 315 315 316 317 318 318 319 319 320 321 322 323 325 326 327 327 327 327 328 328 328 328 328 328 327 327 328 329 329 329 328 328 329 328 328 328 327 327 327 327 327 326 325 324 324 324 322 321 320 319 317 316
305 305 305 305 305 305 305 305 305 305 304 304 304 304 304 303 303 304 304 305 306 307 308 309 310 310 310 311 311 312 312 313 314 314 314 315 317 317 318 319 319 319 320 320 321 323 324 325 326 326 327 328 328 328 327 327 328 328 328 328 329 329 328 328 328 328 328 327 328 328 327 327 327 327 326 326 325 324 323 322 321 319 317 315 315
304 304 304 303 303 303 304 304 304 304 304 303 303 304 304 303 303 303 303 303 304 305 306 307 308 308 309 309 310 310 310 311 312 313 314 315 316 317 318 318 319 320 320 319 320 321 323 324 325 326 326 327 327 328 327 327 327 328 328 328 328 328 328 328 328 328 328 328 328 327 326 326 327 327 326 326 325 324 323 322 321 317 314 314 315
303 303 303 302 302 302 302 303 303 303 302 301 302 303 303 302 302 302 303 302 302 303 303 305 306 307 308 308 308 308 309 309 310 312 313 314 315 316 317 318 319 319 319 319 320 321 322 323 324 325 326 326 326 327 327 327 327 328 328 328 328 328 329 329 329 328 327 327 327 326 326 326 327 326 326 325 325 325 324 322 320 317 314 313 314
303 302 302 302 302 302 302 302 302 301 300 299 300 301 301 301 301 301 302 301 301 301 302 303 304 305 306 306 307 307 307 308 309 310 312 313 314 315 316 316 317 318 318 319 319 320 322 323 324 325 325 326 326 327 327 327 328 328 328 328 329 329 329 329 328 328 328 327 326 325 326 326 326 326 326 324 324 325 324 321 319 317 315 313 314
302 302 302 302 301 301 301 301 301 300 299 299 300 300 300 300 301 301 301 301 300 301 301 302 302 303 304 304 305 305 306 306 307 309 311 312 313 314 315 315 316 317 317 318 318 319 321 322 324 324 324 325 326 326 327 327 328 328 328 328 329 330 329 328 328 328 327 326 325 326 326 326 326 325 325 324 324 324 322 320 319 318 316 315 314
302 302 302 301 301 301 301 300 300 300 299 298 299 300 300 300 301 301 300 300 300 301 301 301 301 302 302 303 303 304 304 305 306 307 309 310 311 313 314 315 315 315 316 317 317 318 319 320 322 323 324 325 326 326 327 327 327 327 328 328 329 329 328 327 327 327 327 326 326 326 326 326 326 325 325 324 323 322 320 319 318 318 317 316 315
302 302 302 301 301 300 300 300 300 299 298 298 298 299 299 300 300 300 300 300 300 301 301 301 301 301 301 302 302 303 303 304 305 306 307 308 310 310 312 313 314 314 315 316 316 317 318 319 320 321 323 325 325 326 327 327 326 326 326 327 327 328 327 327 327 327 326 326 326 326 326 326 326 325 325 324 323 321 320 319 319 318 318 318 317
302 301 301 301 301 301 300 300 300 300 299 298 298 298 298 299 299 299 299 300 300 300 300 300 300 300 300 300 300 301 302 303 303 304 305 306 307 308 309 310 312 313 313 314 315 316 317 318 319 320 322 324 325 326 327 327 326 326 326 326 327 327 327 327 326 326 326 326 326 325 325 326 326 326 325 324 323 322 321 320 320 319 319 319 318
301 301 301 301 301 301 301 301 300 300 299 299 298 298 298 298 298 298 299 299 299 299 299 299 299 299 298 299 299 299 300 300 301 302 303 304 305 306 306 307 309 311 311 312 313 315 317 318 318 320 322 324 325 327 327 326 325 325 326 326 327 327 326 326 326 326 326 326 325 325 325 325 325 325 325 324 324 323 322 321 320 319 319 319 318
301 301 302 302 302 302 301 301 301 300 300 299 299 299 298 298 298 298 298 298 298 298 298 298 298 298 298 298 298 298 299 299 299 300 301 302 303 304 305 305 306 309 310 311 311 313 316 317 318 319 321 322 323 324 325 324 324 323 323 324 325 325 324 324 324 324 324 325 324 324 324 324 324 324 323 323 323 323 323 321 319 319 319 319 317
301 301 302 302 302 301 301 301 301 301 300 300 300 299 299 298 298 298 297 297 297 297 296 296 296 297 297 298 299 299 298 298 298 298 299 300 301 302 303 304 304 306 308 309 309 310 313 315 318 319 320 321 321 321 321 321 321 321 321 322 322 322 322 323 323 323 323 323 323 324 323 322 323 323 322 322 321 320 321 320 317 317 318 318 317
300 300 300 300 301 301 301 301 301 300 300 300 300 300 299 298 298 298 298 297 297 296 296 295 295 295 296 297 298 298 298 298 298 298 298 299 300 301 302 303 303 304 306 307 307 308 310 313 315 317 318 319 319 319 319 318 318 319 320 320 320 320 320 321 321 321 322 322 322 323 321 320 320 319 319 318 317 316 317 317 316 316 317 316 317
299 300 300 300 301 301 300 300 300 300 300 300 300 300 299 299 299 298 298 298 297 297 296 295 295 295 295 296 297 297 298 298 297 297 297 297 298 299 300 301 302 302 304 305 306 307 308 310 313 314 315 317 318 317 317 317 316 317 317 317 317 317 317 318 318 318 319 320 320 320 318 315 315 315 314 314 314 314 314 315 315 315 315 314 314
299 300 300 301 301 300 300 300 300 300 300 300 300 299 299 299 299 299 298 298 298 297 296 295 295 295 295 296 296 296 297 297 297 297 296 296 297 298 299 300 301 301 301 303 305 306 307 308 310 311 312 314 315 316 316 315 315 315 315 314 315 315 315 315 316 316 317 316 316 315 313 312 312 313 313 313 313 313 313 314 314 313 313 313 312
298 299 300 300 301 300 300 299 300 299 299 299 299 299 299 299 299 299 299 298 298 298 297 296 295 295 295 296 296 296 296 297 297 296 296 296 296 297 298 299 300 300 300 301 302 304 305 306 308 310 310 311 311 312 313 312 313 313 312 312 312 312 312 312 312 312 312 311 311 310 309 308 309 309 309 309 309 308 308 310 309 307 307 308 308
298 299 299 300 300 300 299 299 299 299 299 299 299 299 299 299 299 299 299 299 298 298 297 296 295 295 295 296 296 296 296 296 296 296 296 296 296 296 297 297 298 299 299 300 300 302 304 305 306 307 308 309 308 308 308 308 308 309 309 308 309 308 308 308 309 308 308 307 307 306 305 304 304 303 303 303 302 301 301 302 301 299 300 301 301
299 299 299 299 299 299 299 299 299 298 298 299 299 299 299 299 299 299 299 299 299 298 297 296 295 295 295 295 296 296 296 296 296 296 296 296 296 296 296 297 297 298 298 299 300 301 302 303 304 304 305 306 306 306 305 304 305 305 304 304 305 304 305 305 305 306 306 306 306 305 305 304 303 302 301 301 301 300 300 299 299 299 299 299 299
299 299 299 298 298 298 299 299 298 298 298 298 298 298 298 299 299 298 298 299 299 299 298 296 295 295 295 296 296 296 296 296 296 296 296 296 296 296 296 296 296 297 297 298 300 300 300 301 301 302 302 302 303 302 302 302 302 302 302 302 302 302 302 303 303 304 304 305 305 305 305 305 304 303 302 302 302 302 301 301 300 300 299 299 299
299 299 299 298 298 298 298 298 298 298 298 298 298 298 298 298 299 298 298 298 299 298 298 297 296 295 295 296 296 296 296 295 296 296 296 296 296 296 296 296 296 296 297 298 298 298 298 299 299 299 300 300 300 300 300 301 301 301 301 301 301 301 301 301 301 301 302 302 302 302 303 303 303 302 303 303 303 302 302 301 300 300 300 299 299
299 299 299 299 298 298 298 298 298 298 298 298 297 297 297 298 298 298 298 298 298 298 298 297 296 295 295 296 296 296 296 295 295 296 296 296 296 296 296 296 296 296 296 297 297 296 296 297 297 297 297 298 298 298 298 299 299 300 300 300 300 300 300 300 300 300 300 301 301 301 301 300 300 301 302 302 302 301 301 301 300 300 300 300 300
298 299 299 299 298 298 298 298 298 298 298 298 297 297 297 297 298 298 297 297 298 298 298 298 297 296 295 295 296 296 296 295 295 295 296 296 295 295 295 295 295 295 295 296 296 296 296 296 296 296 296 296 296 296 296 297 297 298 298 299 299 299 299 299 299 300 300 300 300 300 300 300 300 301 301 301 301 301 301 301 301 300 300 300 300
298 298 299 299 299 298 298 298 298 297 297 298 298 297 297 297 297 297 297 297 297 297 297 297 297 297 295 295 296 296 296 295 294 295 295 295 295 295 295 295 295 295 295 295 295 295 295 295 295 295 295 295 296 296 296 296 296 296 297 297 297 297 297 298 299 299 299 299 300 300 300 300 300 300 300 300 300 300 300 300 299 299 299 299 299
298 297 298 299 299 298 298 298 298 298 297 298 298 297 297 297 297 297 297 296 297 297 297 297 297 297 296 295 295 296 296 295 294 294 295 294 294 294 295 295 295 295 295 295 295 295 295 295 295 295 295 295 295 295 295 295 296 296 296 296 296 296 297 297 297 298 299 299 299 299 299 299 299 299 299 300 299 299 299 299 299 299 299 298 298
298 297 298 299 299 299 299 298 298 298 298 298 298 297 297 297 297 297 297 296 296 297 297 297 297 297 296 295 295 296 296 295 294 294 294 294 294 294 294 294 293 293 293 294 294 294 294 294 294 294 294 294 294 294 295 295 295 295 295 295 295 296 296 296 296 297 297 297 298 298 298 298 298 298 298 298 298 298 299 298 298 298 298 298 298
298 297 298 298 299 298 298 298 298 298 298 297 297 297 297 297 297 297 297 296 296 297 297 297 297 297 296 295 295 295 295 295 294 294 293 293 294 294 293 293 293 293 293 293 293 294 294 294 294 294 294 294 294 293 293 293 293 293 294 294 294 295 295 295 295 296 296 296 296 296 297 297 297 297 297 297 297 298 298 298 298 298 298 298 298
299 297 297 298 298 298 298 298 298 298 298 297 296 296 296 297 297 297 297 297 297 297 297 297 297 297 297 296 295 295 295 295 294 294 293 293 293 294 294 293 293 292 292 293 293 293 293 293 293 293 293 293 293 293 293 293 293 293 293 293 293 294 294 294 295 295 295 295 295 295 295 295 296 296 297 298 298 297 297 297 297 297 297 297 297
299 298 297 298 298 298 298 298 298 297 297 297 296 297 297 297 297 297 297 296 296 296 297 297 297 297 297 296 295 295 295 295 294 294 294 293 293 293 294 294 293 293 293 293 293 293 293 293 293 293 292 292 292 292 292 292 292 292 293 293 293 294 294 294 294 294 294 295 295 295 295 295 295 295 296 297 297 297 296 296 296 296 296 296 296
298 298 297 297 298 298 298 297 297 297 297 296 296 297 297 297 297 297 296 296 296 296 297 297 297 297 297 296 296 295 295 295 294 294 294 293 293 293 293 293 293 293 293 293 293 293 293 293 292 292 292 292 292 292 292 292 292 292 293 293 293 293 294 294 294 294 294 294 294 294 294 294 295 295 295 295 296 296 296 295 295 295 295 295 295
298 297 297 297 298 298 298 297 297 297 297 297 297 297 297 297 297 297 296 296 296 296 297 297 297 297 297 296 296 296 295 295 295 294 294 294 293 293 293 293 293 293 293 293 293 293 293 293 293 293 293 293 292 292 292 292 292 292 292 292 293 293 293 293 293 293 293 293 293 293 293 293 294 294 294 295 295 295 295 295 295 295 295 295 295
297 297 297 297 298 298 298 297 296 296 297 297 297 297 297 297 297 296 296 296 296 296 296 297 297 297 297 297 296 296 295 295 295 295 294 294 294 293 292 292 293 293 293 293 293 293 293 293 293 293 293 293 293 293 292 292 292 291 291 292 292 292 292 293 293 293 293 293 293 293 293 293 293 293 293 294 294 294 294 294 294 294 294 294 294
297 297 297 297 298 298 297 296 296 296 297 297 297 296 296 296 296 296 296 296 296 296 296 297 297 297 297 297 297 296 296 295 295 295 294 294 294 293 292 291 292 293 293 293 293 293 293 292 292 292 292 293 293 293 292 292 292 292 291 292 292 291 291 292 292 292 292 292 293 293 292 292 292 293 293 293 293 293 293 293 294 294 294 294 294
297 297 297 297 297 297 297 296 296 296 296 296 296 296 296 296 296 296 296 296 296 296 296 297 297 297 297 297 297 296 296 296 295 295 295 294 294 294 293 292 292 292 293 292 292 293 293 292 292 292 292 292 293 293 292 292 292 292 292 292 292 292 291 292 292 292 292 292 292 292 292 292 292 292 292 292 293 293 293 293 293 293 293 293 293
297 297 297 296 297 297 296 296 296 296 296 296 296 296 295 295 296 296 296 296 296 296 296 296 297 297 297 297 297 296 296 296 296 295 295 294 294 294 293 293 292 292 292 292 292 292 292 292 292 292 292 292 292 292 292 292 292 292 292 292 292 291 291 292 292 292 292 292 292 292 292 292 292 292 292 292 292 292 293 293 293 293 293 293 293
297 297 297 296 296 296 296 296 296 296 296 296 296 295 295 295 295 296 296 296 296 296 296 296 296 296 296 296 296 296 296 296 296 295 295 295 294 294 294 293 292 292 292 292 292 292 292 292 292 292 291 291 291 292 292 292 292 292 292 292 292 291 291 291 292 292 292 292 292 292 292 292 292 292 292 292 292 291 292 292 292 292 292 292 293
297 297 297 296 296 295 296 296 296 296 296 296 295 295 295 295 295 296 296 295 296 296 296 296 296 296 296 296 296 296 296 296 296 295 295 295 295 294 294 294 292 292 292 293 293 292 292 292 291 290 290 289 289 290 291 292 291 291 291 291 291 290 290 290 291 292 292 292 292 292 292 292 292 292 292 292 292 291 291 291 291 291 291 291 292
297 297 297 297 296 296 296 296 296 296 296 296 295 295 295 295 296 295 295 295 296 296 296 296 296 296 296 296 296 296 296 296 296 296 295 295 295 294 294 294 293 292 292 293 293 292 292 291 290 289 289 289 289 289 290 290 290 290 290 290 289 289 288 289 290 291 292 292 292 292 292 292 292 292 292 292 292 292 292 291 291 291 291 291 291
297 298 297 297 297 296 296 296 296 296 296 296 296 295 295 295 296 295 295 295 295 295 295 295 296 296 296 296 295 295 296 296 296 296 295 295 295 294 294 294 294 293 292 292 292 292 291 290 290 289 290 290 289 289 289 289 289 290 290 289 288 287 287 288 289 290 291 292 292 292 292 292 292 292 292 292 292 292 292 291 291 291 291 291 291
297 297 297 297 297 297 297 297 296 296 296 296 296 295 295 295 296 295 295 295 295 295 295 296 295 295 295 295 295 295 295 295 295 296 296 295 295 295 294 294 294 293 292 292 292 292 291 291 290 290 290 290 290 290 289 289 289 289 290 289 288 287 287 287 288 289 291 291 292 292 292 292 292 292 292 291 291 292 292 292 291 291 291 291 291
298 297 297 297 297 297 297 297 296 296 296 296 296 295 295 295 295 295 295 295 295 295 295 295 295 295 295 295 294 295 295 295 295 295 295 295 295 295 294 294 294 294 293 292 292 292 292 292 291 291 291 290 290 290 290 289 289 289 289 289 289 289 288 287 288 288 289 290 291 291 291 291 291 291 292 291 291 290 291 291 291 291 291 291 291
Wind_Speed
23 23 21 19 20 20 20 20 20 21 22 22 21 21 19 16 14 12 10 8 7 6 7 9 10 11 12 14 15 15 16 16 16 17 17 17 18 19 20 21 22 23 23 24 25 25 26 25 26 27 27 28 28 30 30 30 29 30 30 31 31 31 30 29 29 27 25 26 29 31 34 35 35 34 32 31 31 30 29 26 24 24 25 25 25
21 22 21 19 20 20 20 20 21 21 21 21 21 22 22 20 17 16 13 12 9 7 7 9 10 10 11 12 13 13 14 15 16 17 18 19 20 20 21 22 23 23 24 25 25 25 25 24 24 25 27 27 28 29 30 30 30 31 32 33 33 34 33 29 28 27 25 26 29 32 34 34 34 35 34 33 33 33 32 30 26 25 25 26 27
18 18 17 17 18 18 18 19 20 19 19 19 20 20 21 21 20 19 17 16 15 11 8 10 12 12 12 12 13 13 14 14 14 15 16 17 19 21 22 23 24 25 26 26 26 26 25 25 26 25 25 27 28 29 30 30 31 33 34 34 34 35 35 33 31 30 28 28 29 31 34 34 34 35 34 34 34 34 32 31 29 27 26 26 27
14 15 15 16 16 18 18 18 18 18 17 18 18 18 19 20 20 20 19 18 18 16 14 13 13 14 14 14 14 14 15 15 14 14 15 16 18 19 20 23 25 25 27 27 27 26 26 27 27 24 23 25 27 29 31 31 31 33 34 35 36 36 36 35 33 32 31 30 30 32 34 35 35 35 35 35 35 34 31 30 29 27 26 27 27
13 14 15 16 16 17 18 18 18 17 17 17 17 17 18 19 20 20 20 19 19 18 17 16 15 15 14 15 16 16 17 19 18 16 16 17 19 20 21 23 25 25 27 28 28 27 28 27 27 26 24 24 26 28 31 32 31 33 35 36 37 37 37 35 33 31 30 30 31 32 34 35 35 35 35 35 34 33 31 29 28 27 26 26 27
14 15 15 16 16 17 17 18 19 18 17 17 17 16 17 18 19 19 20 20 19 18 18 18 17 16 15 15 16 16 18 22 23 21 19 19 19 20 21 22 23 24 26 28 28 28 29 29 28 28 27 25 25 27 30 31 31 32 34 35 37 38 37 36 36 33 30 29 30 31 32 34 34 34 35 36 36 34 32 30 29 27 26 26 26
15 16 17 18 18 18 18 19 20 21 20 19 18 17 17 17 17 18 19 19 19 19 19 19 18 17 16 15 15 15 17 22 24 25 24 23 23 22 22 22 23 24 25 26 27 29 30 29 28 29 28 26 25 26 29 30 31 32 33 34 36 37 36 37 38 36 33 32 31 30 31 33 33 33 35 37 37 36 34 33 32 30 27 26 27
15 17 18 20 22 22 21 21 22 23 23 23 22 21 19 18 17 17 18 19 20 20 20 20 19 17 16 15 14 14 16 20 22 24 25 26 27 27 27 26 25 25 26 26 26 27 28 29 29 30 29 27 25 25 27 30 31 32 33 34 36 37 36 37 37 34 33 33 32 29 29 30 31 32 35 38 38 37 37 36 34 31 29 27 26
15 17 19 21 22 22 22 22 23 25 25 26 26 25 23 21 19 17 18 18 19 20 20 20 20 18 16 15 14 14 15 17 19 21 22 24 27 29 30 31 30 29 29 28 27 26 26 27 29 29 27 25 25 26 27 29 31 32 33 35 36 37 36 36 37 35 33 34 33 31 30 30 32 35 38 41 40 38 38 38 34 30 29 27 25
15 17 19 22 23 23 23 23 23 25 25 25 26 26 26 25 23 20 19 19 19 19 20 20 20 20 18 17 16 16 17 18 19 19 21 22 25 28 30 31 33 33 33 31 29 27 26 27 28 27 27 26 26 27 28 29 31 32 32 34 35 37 37 36 37 37 34 35 36 34 32 32 34 37 39 40 39 37 39 40 36 31 29 29 26
17 20 21 22 23 23 23 23 24 25 25 25 25 25 26 26 24 22 21 21 20 19 19 20 20 21 21 20 19 19 20 20 21 21 21 22 24 26 29 30 30 32 34 35 33 30 28 29 28 27 29 29 27 27 28 29 30 31 31 33 35 37 38 38 38 37 35 34 35 35 34 33 34 36 37 37 37 37 40 41 38 35 33 32 30
19 21 22 22 22 22 22 23 25 26 26 25 25 25 26 26 26 24 23 23 22 21 20 21 22 22 22 21 21 21 22 22 22 23 24 24 25 25 27 29 29 29 31 35 35 33 31 30 29 28 29 28 26 25 27 28 29 30 31 32 35 37 38 37 36 36 35 33 33 35 34 33 33 35 36 38 38 39 40 40 39 37 36 34 33
22 22 22 21 20 20 21 22 24 25 25 25 25 25 26 27 27 26 26 24 22 22 22 23 23 23 22 22 22 23 23 24 24 25 26 27 27 26 25 26 27 27 28 30 32 32 31 30 29 28 28 27 26 25 26 28 29 30 31 33 35 37 36 35 34 34 33 31 32 33 31 32 34 35 36 39 41 40 39 38 38 38 38 36 33
23 23 23 23 22 21 21 21 22 22 23 23 22 22 24 25 25 25 26 25 24 24 24 24 24 24 24 24 24 24 25 26 26 26 27 29 29 27 24 23 24 25 24 24 25 27 28 29 29 29 28 28 27 26 27 28 30 30 32 34 35 35 34 34 33 32 29 28 29 30 29 31 36 37 36 37 39 39 39 38 38 40 38 34 30
23 22 24 26 25 24 24 23 22 22 24 24 22 19 20 22 22 22 23 25 25 26 27 27 26 25 25 25 25 26 27 28 28 27 26 28 29 28 24 22 24 25 22 20 20 21 24 26 28 29 29 28 28 27 28 28 28 29 31 33 34 33 32 31 30 29 27 26 27 26 25 30 36 36 35 34 34 36 37 37 38 38 36 33 32
23 24 25 27 27 26 27 26 25 26 30 30 26 22 22 22 20 18 19 21 23 26 27 28 28 27 27 27 27 28 29 30 30 29 27 26 27 27 25 23 22 23 22 21 20 20 22 24 27 28 28 28 27 26 26 27 27 29 31 32 33 32 30 27 26 26 26 27 26 23 23 27 31 32 32 31 31 32 33 33 33 34 36 37 37
23 24 25 26 26 26 28 28 27 29 33 34 31 28 26 25 22 19 19 19 20 22 25 27 28 28 28 29 29 30 31 31 31 30 28 26 26 27 25 24 23 21 21 21 21 20 20 21 24 26 27 28 27 26 26 27 29 32 33 33 34 33 30 27 25 25 25 25 23 23 24 26 27 29 30 28 27 29 31 31 30 33 39 40 38
23 23 23 24 25 26 27 28 28 30 33 35 34 32 31 29 28 26 24 22 21 21 23 25 27 29 29 30 30 30 31 31 31 31 30 28 27 26 25 24 24 25 25 24 23 23 22 21 21 23 25 27 26 25 26 27 30 32 32 32 33 31 28 26 26 26 25 23 22 23 25 25 26 29 31 29 26 27 31 32 31 34 39 40 38
22 22 22 22 24 26 27 28 29 30 32 35 35 35 34 33 33 32 29 27 25 24 25 26 27 28 28 28 29 29 30 30 31 31 31 30 28 27 27 26 26 27 28 26 24 25 24 22 20 20 22 23 25 25 26 27 28 29 29 30 29 27 26 26 27 27 26 24 23 23 23 24 25 26 29 31 30 29 31 32 32 35 39 39 39
20 21 21 22 23 24 25 27 28 28 30 33 34 35 35 34 34 34 33 31 29 28 29 29 29 29 29 29 29 29 29 29 29 29 31 32 31 29 28 28 27 26 26 25 23 23 23 21 19 18 18 18 20 22 24 26 26 26 27 27 25 23 24 26 27 27 26 25 24 23 23 23 23 22 25 29 31 31 29 28 31 37 39 38 37
18 19 20 21 21 21 22 24 27 27 27 29 32 33 34 34 34 34 33 33 32 31 31 31 31 32 33 33 33 32 31 29 28 28 29 30 31 31 30 29 27 25 24 24 24 23 23 21 15 11 13 17 20 23 26 28 27 27 28 26 23 22 25 27 26 25 24 24 23 23 23 23 22 22 22 24 26 29 29 26 29 34 35 34 34
17 18 19 20 20 20 21 22 24 24 25 27 30 32 33 33 34 34 34 33 33 33 32 32 33 33 34 34 35 35 34 32 30 29 28 28 29 31 31 30 28 26 25 25 25 24 23 21 19 13 5 9 16 20 23 23 21 20 20 19 19 20 21 21 21 20 21 22 21 21 21 20 20 20 20 20 21 23 25 24 26 30 31 30 30
16 17 17 18 19 20 21 21 23 23 23 25 28 30 31 32 33 33 33 33 33 34 34 35 34 33 32 33 33 34 34 34 33 32 31 29 28 29 29 30 29 27 25 25 24 23 21 19 19 18 14 12 16 17 16 15 11 10 10 10 12 14 15 16 17 18 20 20 19 18 18 18 19 19 19 20 19 19 19 18 19 25 28 25 23
18 18 19 18 18 20 22 22 23 23 23 24 26 28 30 31 32 32 33 33 33 33 34 36 36 35 34 32 32 32 33 33 34 34 34 32 29 28 27 27 28 27 25 23 22 21 19 16 14 13 10 10 12 14 16 14 10 8 9 10 12 14 16 18 20 20 20 20 19 18 18 17 17 17 17 17 17 17 18 17 18 21 24 23 22
18 18 19 18 17 21 24 23 24 26 25 25 27 27 28 30 31 32 32 31 32 33 34 36 37 37 36 34 32 32 32 32 33 35 35 34 31 28 26 25 25 26 25 22 20 19 18 15 12 11 12 11 9 10 15 15 11 10 10 10 12 13 15 17 17 17 17 17 17 18 17 16 15 15 15 15 14 15 17 18 19 19 20 22 22
18 16 16 16 16 19 23 23 24 26 27 27 28 28 28 29 30 31 31 31 31 32 34 36 37 37 36 35 34 32 31 32 33 35 36 35 33 30 27 23 22 23 24 22 19 18 17 15 12 11 12 13 13 13 13 13 12 11 11 10 11 10 11 12 12 12 14 16 17 17 17 17 17 17 17 17 17 17 19 21 22 21 21 23 23
18 16 15 15 14 17 21 22 23 25 26 27 28 29 29 30 30 30 30 30 30 31 33 35 37 37 36 35 35 33 31 31 33 34 36 36 34 32 30 26 22 20 21 21 20 17 16 15 12 10 10 11 14 16 15 14 13 12 12 12 11 11 11 11 11 13 15 17 17 18 18 19 19 19 19 19 18 18 18 21 22 22 21 22 23
17 16 16 16 15 16 19 20 21 24 25 25 27 28 29 30 30 30 29 29 29 30 31 33 35 36 35 33 34 34 33 31 32 34 34 34 34 33 32 31 28 24 22 21 19 15 13 13 10 9 9 10 12 15 17 19 19 18 18 17 16 17 18 19 19 20 21 21 21 22 23 23 22 21 21 20 20 19 18 19 22 23 20 19 22
17 16 15 17 16 17 19 20 21 23 23 24 26 27 27 28 29 29 28 27 27 28 29 31 33 34 34 32 31 33 34 32 31 31 30 30 31 31 31 32 31 29 26 23 18 14 11 9 9 11 14 16 18 19 20 22 23 23 23 23 23 24 25 25 25 25 25 25 26 26 27 26 26 25 25 24 23 21 19 20 23 23 19 19 21
15 17 16 16 16 16 17 19 21 22 22 23 25 25 25 25 26 28 28 25 25 27 28 29 32 33 32 30 28 29 31 30 29 27 27 28 28 27 27 28 27 26 24 20 16 15 15 13 13 14 15 16 18 20 21 23 24 25 25 25 25 25 25 25 25 24 23 24 25 25 25 25 25 24 23 23 22 21 20 21 23 23 21 21 23
12 14 15 14 15 15 14 16 18 20 20 21 23 23 24 23 24 26 27 24 23 25 26 26 29 32 30 28 26 27 28 28 27 25 25 26 26 25 24 24 25 25 22 20 18 20 21 20 19 18 17 16 16 17 17 17 19 21 22 23 23 22 22 22 21 19 19 19 19 21 22 22 22 20 20 21 21 19 18 19 18 18 19 19 20
10 11 12 13 13 14 14 15 15 17 18 19 20 20 21 21 22 24 25 23 23 24 23 23 27 30 29 26 25 27 29 29 27 24 24 25 26 24 22 22 23 23 21 21 22 24 24 23 23 21 19 19 19 18 16 15 15 15 17 19 21 21 21 20 18 17 16 16 17 19 19 17 17 17 18 19 18 16 16 16 15 14 15 14 14
11 9 10 12 12 12 14 16 15 15 15 15 17 19 19 19 20 21 22 23 23 23 23 23 25 28 28 25 24 26 29 29 27 23 22 24 25 23 20 20 21 22 22 22 24 24 24 23 23 22 21 20 19 18 18 17 16 15 16 17 18 18 18 18 18 19 19 19 19 20 19 18 18 18 19 19 19 18 19 20 19 18 18 17 17
14 10 8 10 12 11 12 17 17 15 13 12 15 19 19 17 18 19 21 22 23 23 25 25 24 26 27 25 23 25 28 30 28 23 20 22 23 20 17 19 20 22 23 24 24 23 23 22 22 21 20 20 19 18 18 17 17 16 16 16 15 14 13 14 15 17 19 19 19 19 19 19 20 22 23 24 24 24 23 23 21 20 20 20 21
15 13 8 8 10 9 10 15 16 15 13 12 13 18 19 16 14 17 21 22 21 22 25 25 24 24 26 25 24 23 26 30 30 23 18 20 23 21 17 19 22 22 22 23 23 22 22 22 21 20 19 18 17 17 17 17 16 16 16 16 15 14 13 12 13 14 16 17 18 19 19 19 20 21 23 24 25 24 22 20 18 18 19 19 21
14 14 9 8 10 9 9 13 15 14 13 11 13 18 19 14 11 14 19 21 21 22 24 25 24 24 25 25 23 23 26 29 30 25 19 19 23 23 22 23 23 22 21 21 21 21 21 20 20 19 18 17 17 16 16 16 16 16 16 15 15 15 14 13 13 12 12 13 14 15 15 16 16 16 17 17 16 16 15 15 14 15 17 18 19
14 14 10 9 9 9 9 11 12 11 12 13 15 17 16 13 11 13 17 20 20 21 22 24 24 25 25 24 22 23 26 29 30 28 23 20 20 23 25 24 23 22 21 20 20 19 19 19 19 18 17 17 16 16 16 16 16 16 16 16 16 16 15 15 14 13 12 11 11 11 11 12 12 12 12 13 14 14 14 15 16 18 18 19 18
12 12 10 9 9 9 9 9 9 10 14 17 16 14 13 13 13 13 15 18 19 20 21 22 23 25 24 22 21 22 25 28 30 31 28 23 20 20 22 23 23 23 22 20 19 18 18 18 18 17 17 16 15 15 15 15 15 16 16 16 16 16 16 16 15 14 14 14 14 14 13 13 13 13 13 15 16 17 16 16 17 18 17 16 15
10 10 9 9 9 9 9 8 8 11 16 17 14 14 15 15 13 11 13 17 19 21 21 20 21 23 22 20 20 22 25 27 29 30 30 27 22 19 19 20 21 22 22 21 19 17 16 17 17 17 17 17 15 14 13 13 13 14 14 15 15 16 16 15 15 14 14 14 14 14 14 14 14 14 14 14 15 16 16 16 16 17 16 15 14
6 6 7 8 9 9 8 8 10 12 14 15 14 15 16 15 11 10 13 16 19 21 20 18 19 22 21 18 19 22 23 25 27 29 29 28 25 21 18 17 18 20 20 20 19 17 16 16 17 18 19 18 17 16 15 13 12 12 12 12 13 14 15 15 15 14 14 14 14 13 12 12 12 13 13 13 14 14 15 15 15 15 14 13 13
5 5 6 7 8 7 7 9 11 11 12 13 13 14 15 13 9 9 12 15 18 19 19 17 18 20 19 16 18 20 21 22 24 27 28 27 26 23 20 16 16 17 18 18 18 18 16 14 15 15 16 16 16 15 15 14 12 11 10 10 11 11 12 13 13 14 14 14 14 13 12 11 11 11 12 11 11 12 13 12 12 13 12 12 12
6 6 6 6 6 6 7 9 10 10 10 12 13 13 15 12 8 7 11 15 17 18 18 17 17 18 18 16 16 17 18 19 22 24 26 26 25 24 22 18 15 15 16 16 16 17 17 14 11 10 11 11 11 11 11 12 12 11 11 11 11 10 10 11 11 12 12 12 12 12 11 10 10 10 10 10 10 11 12 11 11 12 11 12 13
5 5 5 4 5 6 8 8 8 9 10 11 11 12 13 12 9 8 11 14 16 16 17 16 16 17 18 18 16 14 15 17 20 22 23 24 24 24 23 21 16 14 13 13 13 15 17 16 12 9 7 7 7 7 8 9 9 9 10 10 11 11 10 9 10 11 11 11 11 10 9 9 9 9 9 9 9 10 10 10 10 9 9 10 12
5 5 6 4 3 6 8 8 7 8 10 12 13 13 12 11 11 12 11 12 15 17 16 15 14 15 16 17 16 14 13 15 18 20 20 21 22 23 22 21 19 15 12 12 11 11 13 14 14 13 10 6 4 4 4 5 6 6 6 6 7 7 7 8 9 10 9 8 9 9 8 8 8 8 7 7 7 7 8 9 9 8 8 8 10
5 4 5 5 4 6 8 8 8 8 9 11 13 13 11 11 13 13 10 9 14 18 16 13 13 14 15 15 16 15 14 14 16 17 17 18 20 21 21 21 20 17 15 14 12 11 11 12 14 14 13 9 5 3 3 3 4 4 4 4 5 4 3 5 7 7 6 6 7 8 7 6 5 5 7 7 6 5 5 7 7 6 6 8 10
3 2 4 4 4 5 6 7 8 8 8 9 11 12 11 12 13 12 9 10 14 17 16 14 13 14 15 15 14 14 15 15 15 15 16 16 17 18 19 20 19 17 16 16 14 12 12 13 14 14 13 10 6 4 4 4 3 2 3 4 5 5 1 3 5 5 5 5 6 6 5 4 4 6 8 9 9 7 6 6 6 5 5 7 10
3 5 7 5 4 6 5 4 6 8 7 9 10 10 10 11 12 11 11 13 14 13 13 14 14 14 14 14 13 13 15 16 14 13 14 15 15 15 17 19 18 16 14 14 14 14 14 14 14 13 11 9 6 4 3 3 3 3 4 5 5 4 2 2 5 5 4 5 5 5 4 3 4 7 8 8 7 8 8 7 8 9 10 8 8
2 4 6 4 5 6 5 3 6 8 7 7 9 10 9 9 11 11 10 11 11 11 13 14 14 12 12 12 13 13 15 15 13 12 13 14 14 15 15 17 18 16 13 12 13 15 15 14 12 11 9 7 6 5 5 4 4 5 5 6 5 4 1 2 5 7 5 3 4 5 5 5 6 7 8 7 6 6 6 6 7 8 9 9 9
1 3 3 2 3 5 4 5 8 9 7 7 12 13 9 7 11 13 10 9 10 12 13 12 11 11 11 12 13 14 14 14 13 13 13 13 14 14 14 14 15 16 14 11 11 14 16 14 11 10 10 8 8 8 7 5 6 6 7 7 6 4 2 3 6 8 7 5 4 4 4 4 5 6 7 7 6 6 7 7 6 6 6 7 9
1 1 2 3 4 5 6 7 8 8 7 9 13 13 8 5 10 13 11 10 12 12 10 9 10 11 11 12 13 13 14 13 12 13 13 13 13 14 14 13 14 15 14 11 11 14 16 15 12 12 12 10 9 10 10 8 7 8 7 7 7 5 2 4 7 8 9 8 7 6 5 5 5 5 6 6 6 7 7 7 6 7 6 5 6
1 1 3 5 6 6 6 6 7 8 9 9 10 11 8 5 8 12 12 11 11 9 7 8 9 8 8 10 12 12 12 12 12 13 12 11 11 13 14 14 14 12 12 11 11 13 16 16 14 13 13 12 10 11 12 11 10 9 8 7 6 5 2 3 5 8 9 10 9 9 8 8 8 8 7 6 5 6 7 8 9 9 8 7 7
Wind_Direction
22 21 22 27 29 22 19 29 32 27 27 25 18 15 12 8 4 359 348 332 315 299 309 323 328 329 323 319 321 317 315 316 313 307 300 294 290 286 284 283 283 284 284 281 278 274 271 269 268 268 267 262 257 253 251 248 243 240 239 241 241 237 232 227 228 226 220 219 220 217 214 212 213 215 217 213 209 213 219 225 226 220 214 212 209
27 22 22 25 25 20 23 33 33 27 29 26 21 19 16 12 9 5 1 353 340 312 289 294 304 318 326 321 319 321 319 317 315 311 306 302 298 291 286 284 283 283 282 282 281 277 274 272 271 270 268 263 258 255 253 248 242 239 238 239 239 235 231 227 225 224 219 215 215 216 215 213 213 214 215 214 212 212 216 220 220 217 216 214 211
37 28 21 19 19 20 24 32 31 26 24 21 19 18 13 10 9 8 5 359 352 340 310 290 284 288 301 306 309 318 322 320 319 317 311 308 303 297 291 286 283 281 280 280 280 277 274 272 270 268 263 259 256 253 251 248 244 240 238 237 237 233 230 228 226 224 220 214 211 213 215 213 213 214 213 213 215 215 215 217 217 215 214 214 213
32 23 19 16 18 23 26 28 27 23 18 15 16 15 11 10 12 11 9 3 358 352 337 319 303 293 291 292 294 303 312 315 317 313 304 298 295 294 291 287 283 282 281 280 278 275 274 272 269 267 262 259 256 252 248 246 244 242 241 238 237 234 232 231 229 228 225 218 213 214 215 214 215 216 213 211 214 218 217 215 214 213 213 214 214
24 17 16 17 21 27 27 22 19 16 12 11 14 14 13 16 18 15 11 7 3 359 352 342 332 321 310 299 292 293 298 299 301 304 301 294 288 287 286 283 281 279 277 276 275 273 271 272 271 269 265 261 259 254 249 245 243 243 242 239 237 236 235 234 232 230 227 222 218 216 215 214 213 213 213 210 210 214 215 213 214 215 215 214 213
25 19 15 17 21 26 25 20 15 12 10 10 11 13 14 18 21 20 16 12 8 4 1 358 354 347 336 320 307 301 295 288 286 290 294 294 290 285 284 282 280 279 276 273 273 271 270 272 272 268 265 264 262 256 250 246 244 242 240 238 238 238 236 235 233 230 228 226 223 218 215 214 213 212 212 212 211 211 211 213 216 219 218 216 213
23 22 20 20 21 22 25 24 19 16 17 19 16 14 15 16 20 23 23 20 16 11 8 6 4 1 355 342 329 317 302 291 287 286 286 288 288 286 286 285 280 278 276 275 274 270 268 270 269 265 265 266 261 254 248 245 243 242 240 239 240 240 238 237 235 231 228 227 227 223 217 214 214 212 212 213 214 212 211 211 211 215 218 218 217
19 22 25 26 25 25 29 30 26 22 24 24 20 16 15 14 16 21 23 25 24 21 18 14 11 10 7 358 345 331 315 307 306 303 295 288 284 282 283 285 285 280 275 274 274 271 268 267 267 266 264 263 259 253 247 244 243 242 241 240 241 242 241 240 238 234 229 228 228 225 218 213 212 213 211 211 212 211 211 212 211 211 214 217 218
16 23 30 31 28 29 33 33 29 27 26 24 18 15 15 14 14 16 18 21 23 25 24 21 19 17 15 12 1 349 340 337 336 331 319 305 293 286 281 281 283 283 279 275 272 272 271 268 266 266 263 259 257 254 249 244 243 243 242 240 240 242 242 242 242 239 232 228 226 224 221 215 213 212 209 211 214 212 209 211 214 214 215 216 215
22 29 35 35 31 31 33 34 32 29 28 25 18 13 13 13 14 16 16 15 16 21 23 22 23 20 18 18 14 5 0 358 357 353 342 327 312 301 291 284 279 277 278 278 275 273 272 269 268 267 266 262 258 255 251 247 245 244 242 240 240 240 240 240 241 238 232 230 230 227 222 216 214 213 210 209 213 212 207 209 213 214 213 213 212
32 37 37 36 35 32 29 31 33 30 27 26 22 16 13 13 14 16 16 13 11 13 18 20 21 21 19 17 15 10 6 1 359 357 353 343 328 314 304 296 287 278 273 272 274 274 272 271 269 267 266 265 261 256 253 249 245 242 241 240 240 240 240 239 241 238 232 231 233 228 222 218 215 215 212 207 206 208 208 209 210 211 209 208 210
39 41 39 36 34 32 30 32 35 32 27 25 24 21 17 15 16 16 15 15 10 6 9 14 16 17 16 15 13 10 5 2 358 356 355 350 340 327 314 305 299 289 277 270 269 270 272 272 270 266 264 265 265 260 253 249 246 243 241 241 242 242 239 237 239 238 234 233 232 228 225 223 219 216 213 208 205 205 207 207 209 212 211 209 211
44 42 38 33 30 30 33 36 38 34 28 25 25 24 20 18 20 17 12 12 12 7 6 8 8 9 10 10 11 9 5 2 359 357 357 355 349 340 326 314 308 301 289 277 271 268 270 271 270 265 263 264 264 260 252 249 249 246 243 242 242 240 237 235 238 239 238 237 235 231 228 225 222 218 214 210 207 205 203 204 207 211 212 212 213
45 41 36 31 30 34 37 38 37 33 27 22 22 23 19 17 21 20 10 7 13 15 12 9 7 6 6 7 8 8 6 2 360 358 359 359 357 349 339 332 328 321 308 292 280 272 269 270 270 267 263 261 260 257 253 249 248 245 242 240 239 236 232 232 234 235 235 236 236 233 230 228 225 221 217 214 212 211 207 202 203 207 210 212 215
43 41 39 35 34 38 40 38 36 32 25 22 21 20 15 12 17 21 12 9 16 20 17 15 12 9 8 7 7 8 7 4 1 359 359 2 3 359 353 349 345 337 326 310 293 279 268 265 267 268 266 261 258 255 253 251 246 242 239 237 235 231 229 228 229 230 232 233 232 227 226 231 228 221 218 216 215 216 213 206 202 204 208 211 213
42 43 43 39 37 39 40 39 39 35 29 27 26 23 18 13 14 18 13 13 21 22 19 18 18 14 11 9 8 9 7 4 2 359 359 3 5 4 3 358 350 342 332 320 308 293 277 266 264 266 266 263 261 258 256 252 245 238 235 233 230 227 226 226 227 228 228 227 225 220 220 228 226 220 219 218 214 213 209 204 205 208 208 208 208
41 45 46 39 38 41 40 39 41 37 31 31 31 28 24 20 19 19 17 20 27 26 21 20 20 18 16 14 11 10 7 6 3 0 0 3 4 5 6 3 358 352 343 332 322 312 297 280 270 266 263 259 256 256 255 248 240 237 235 229 224 222 221 221 220 220 220 218 217 215 216 219 219 216 217 216 214 210 201 196 202 208 207 204 201
41 45 46 39 38 43 42 40 40 39 35 35 36 36 34 32 30 29 28 28 31 28 24 22 21 19 18 17 15 13 11 9 6 3 3 5 6 6 7 7 6 3 358 349 338 327 314 296 279 269 262 258 253 251 251 244 235 234 230 221 218 216 212 210 209 208 208 206 203 206 211 213 214 213 211 210 211 207 200 196 200 205 206 203 199
42 42 42 38 37 41 42 39 37 38 37 36 38 40 41 40 39 38 38 36 34 30 26 23 21 21 20 18 15 14 13 11 9 6 6 8 10 9 8 9 10 8 3 354 346 340 329 310 290 274 262 254 247 244 244 239 232 228 221 213 211 209 204 204 205 204 201 198 196 200 205 208 213 214 208 207 208 205 202 202 204 206 205 203 200
42 41 40 39 38 39 41 39 36 35 35 35 36 39 41 42 42 42 42 42 40 37 33 29 28 27 26 23 19 16 14 12 11 10 9 9 11 12 11 10 11 11 7 360 356 356 349 331 310 288 264 245 237 234 231 230 229 225 219 216 213 209 205 204 204 203 203 201 199 199 201 204 210 213 208 205 207 206 204 204 206 207 205 202 198
41 40 41 40 37 37 38 38 35 35 35 36 35 37 40 41 42 41 41 41 40 40 37 34 32 31 29 27 25 22 18 15 12 12 12 10 10 12 15 14 12 13 14 10 9 14 14 8 356 315 265 230 221 219 214 216 220 216 210 210 211 210 208 204 201 202 205 205 200 197 199 202 204 208 208 207 210 212 209 206 205 205 208 207 201
42 43 45 41 35 32 32 33 33 32 35 37 36 36 37 39 40 40 39 38 38 37 36 33 31 29 27 25 25 24 23 20 17 16 15 12 11 12 15 16 12 12 17 17 18 25 28 32 46 51 69 167 179 187 189 192 198 197 193 191 194 201 202 198 197 200 201 201 198 195 197 200 200 203 207 208 213 216 216 214 205 201 204 207 203
43 46 49 43 34 30 29 30 31 30 32 36 36 35 35 36 37 38 38 38 38 37 35 33 30 27 24 22 22 23 24 24 23 21 19 17 14 12 13 16 14 13 18 21 23 28 31 41 58 60 58 87 116 128 135 137 137 146 159 171 184 195 197 192 191 193 193 192 192 191 194 198 201 204 204 204 206 207 209 207 197 194 196 193 192
48 51 52 45 37 35 35 34 32 31 32 34 34 34 33 33 34 35 35 36 36 34 33 31 29 27 24 21 20 21 22 23 24 24 23 21 18 14 13 15 17 16 17 22 25 26 28 36 52 62 68 84 94 100 106 104 98 110 136 162 178 185 188 185 183 183 182 182 183 184 185 187 193 195 192 192 193 189 186 180 173 180 185 180 178
49 52 52 49 43 39 39 37 34 33 34 33 32 32 31 31 32 32 32 33 33 32 30 29 28 28 26 22 20 19 19 20 20 20 22 22 20 18 15 16 20 20 17 20 24 25 25 27 39 69 97 109 105 95 98 101 105 115 130 152 165 170 174 176 177 178 177 176 178 178 173 169 172 174 171 171 171 168 168 168 167 173 182 184 186
45 44 45 46 44 40 38 36 34 34 33 32 31 31 31 30 30 31 31 31 31 29 28 26 26 26 26 25 22 19 17 17 17 17 19 19 19 19 18 17 23 25 22 20 19 19 19 20 29 50 77 103 117 116 107 106 114 123 133 146 154 158 161 163 169 175 171 168 169 166 159 154 155 157 159 161 161 158 156 155 153 152 160 166 163
46 44 44 45 41 36 35 35 33 31 31 30 30 30 30 29 29 30 30 29 27 27 26 25 24 22 22 23 23 20 18 15 15 15 16 15 16 18 19 18 19 23 24 21 19 20 22 21 27 40 55 79 101 111 118 124 129 134 139 145 146 145 144 144 148 152 150 149 149 146 143 144 145 146 148 151 149 146 148 150 144 138 143 150 143
55 53 53 52 47 36 32 34 33 31 30 29 27 27 27 27 27 28 28 27 26 26 26 26 24 21 19 19 20 21 20 17 15 15 14 13 13 16 19 19 18 19 18 14 11 17 24 26 36 57 74 83 92 101 110 115 120 126 130 132 132 131 131 133 134 133 131 130 128 126 124 125 126 126 127 128 124 121 126 132 128 124 128 135 136
62 55 50 50 49 43 38 36 34 32 32 31 28 25 25 26 26 27 26 25 25 24 24 25 24 21 19 19 19 20 21 20 16 14 14 13 13 15 18 19 18 18 16 9 1 2 15 34 61 79 86 93 97 99 101 103 106 110 113 116 119 122 123 125 124 123 123 122 120 117 116 116 116 116 116 115 114 116 120 124 124 126 131 134 134
69 58 51 50 49 47 45 40 35 34 34 32 29 26 24 25 26 26 26 25 24 23 23 24 23 20 18 19 20 21 22 21 18 14 13 13 14 16 20 21 21 21 17 11 10 21 32 45 60 67 72 82 89 92 96 101 103 105 107 109 112 115 116 116 115 117 121 121 120 120 121 120 119 118 118 118 119 119 120 122 125 129 134 134 131
74 61 56 52 44 40 42 42 40 38 34 28 27 28 27 25 24 25 26 26 24 23 23 22 20 18 17 17 19 20 19 20 19 16 13 13 14 16 20 22 25 27 22 18 27 40 44 46 50 52 54 60 65 69 76 85 93 99 103 105 106 108 110 110 111 115 120 121 122 125 128 127 124 124 126 128 128 125 124 127 130 133 133 132 130
65 67 64 58 47 38 39 41 40 36 33 28 27 28 28 26 25 27 28 26 22 22 23 20 17 17 16 15 16 17 16 16 17 16 14 13 13 14 20 25 29 31 28 29 39 45 47 49 51 52 53 56 58 59 62 68 78 90 98 100 100 101 103 106 113 118 120 120 124 130 134 134 132 135 141 143 140 140 144 148 150 150 148 146 141
51 72 73 62 56 47 37 32 31 33 35 30 25 25 28 29 29 28 24 20 18 18 17 14 12 15 17 15 13 14 14 12 13 14 14 12 10 12 20 29 33 34 35 38 44 48 48 49 52 53 55 58 59 61 65 70 76 87 95 99 99 99 101 107 115 118 118 119 123 126 129 132 132 135 142 146 146 146 148 146 142 138 136 134 132
40 61 80 68 61 53 31 23 28 36 38 30 23 24 28 29 25 18 13 13 16 15 13 11 10 12 16 15 13 13 12 11 12 12 10 11 12 14 23 34 37 37 39 40 43 46 47 49 50 51 54 58 60 63 67 71 75 80 86 90 93 96 101 108 114 117 119 120 120 118 119 122 125 127 130 134 136 135 133 130 126 123 122 123 128
28 42 73 79 64 53 30 21 25 32 36 33 24 21 22 23 19 12 10 14 17 13 10 12 12 11 15 17 14 10 9 11 13 12 9 14 17 19 26 35 36 36 37 38 40 43 45 47 49 50 52 55 59 62 66 70 73 76 79 82 85 90 95 102 109 116 121 123 120 119 119 119 120 122 125 127 128 128 128 127 125 123 123 127 134
30 40 69 85 66 54 36 24 23 28 35 31 14 10 16 24 21 13 14 20 22 14 9 11 14 13 15 17 14 9 9 12 14 14 16 22 23 22 25 29 30 32 36 37 36 39 42 44 47 50 51 54 59 63 66 70 74 77 80 83 85 87 90 94 97 103 112 118 119 122 125 124 122 123 124 124 125 126 128 131 133 133 137 140 139
35 40 65 79 61 46 30 21 24 32 29 10 357 1 17 30 25 14 16 23 23 15 7 8 11 12 14 16 12 8 9 13 15 16 20 26 29 27 27 27 27 29 33 35 34 36 40 42 44 47 51 56 62 68 72 76 78 81 84 85 87 88 90 92 94 95 98 102 104 109 117 119 119 121 124 126 129 131 131 132 133 136 143 147 144
36 35 49 58 49 41 34 27 30 30 18 8 7 16 27 28 16 9 15 24 23 16 9 6 6 8 13 14 10 6 7 10 13 15 18 24 30 31 28 27 27 28 30 30 29 32 37 41 44 48 51 56 61 67 73 79 84 88 89 89 91 93 94 95 96 97 98 100 101 102 105 108 112 121 132 137 137 135 133 134 135 136 138 140 136
39 30 35 37 31 35 41 37 27 19 15 18 27 34 30 23 15 11 19 26 25 19 12 5 3 7 12 12 7 5 6 9 12 15 18 21 27 30 29 26 26 28 29 27 25 27 34 42 49 54 56 56 57 60 65 73 82 87 90 91 93 94 94 92 92 93 96 101 106 108 109 110 113 119 128 135 139 138 133 131 132 133 134 133 126
59 44 32 22 19 32 46 35 17 13 19 28 36 37 32 28 26 23 24 24 21 17 14 9 5 7 9 8 4 5 7 8 11 14 17 19 22 26 29 28 26 28 29 27 26 30 40 52 61 64 61 58 56 56 58 66 77 85 90 93 96 97 96 93 92 92 92 92 95 101 106 110 116 122 126 130 137 141 137 133 131 131 131 131 130
75 45 22 15 18 28 32 20 12 13 18 20 20 22 22 20 23 31 26 17 12 12 14 14 9 7 9 8 4 3 6 7 9 12 14 16 19 22 26 30 29 26 26 27 29 32 38 53 68 68 58 52 50 50 52 57 64 72 81 89 93 96 97 96 96 96 95 93 93 95 97 102 113 124 129 132 139 145 145 142 140 137 128 123 129
63 30 17 22 25 16 5 9 17 19 9 359 0 10 13 11 20 35 20 9 8 12 15 16 12 8 10 10 5 2 2 3 5 9 13 15 17 19 21 25 27 26 23 23 26 28 30 36 51 60 53 46 43 44 47 50 52 61 75 82 83 85 91 98 101 103 104 106 105 99 94 97 105 114 120 126 133 139 144 145 144 142 135 126 129
66 32 13 13 28 26 19 20 23 20 10 4 9 19 21 20 26 19 2 2 11 17 18 19 15 9 9 10 8 4 1 359 0 6 10 14 16 17 17 19 23 25 22 20 22 27 27 26 28 36 44 50 53 52 53 52 53 64 80 86 86 87 93 103 115 118 115 113 112 108 104 107 113 118 127 135 134 130 132 135 138 141 140 134 133
72 44 21 10 19 30 29 24 15 14 15 12 9 11 16 21 18 4 350 360 17 21 22 24 19 9 6 9 10 7 360 356 358 2 7 12 15 15 14 17 20 22 19 19 22 25 22 20 21 21 24 39 64 69 55 43 40 48 64 76 85 93 102 113 122 122 115 108 111 113 112 110 109 108 115 132 144 139 129 126 129 135 138 137 138
79 59 30 15 6 15 21 18 11 14 18 13 8 10 17 19 13 2 350 359 14 19 22 27 20 8 5 8 9 5 360 356 356 359 4 9 13 12 10 13 18 22 23 24 27 26 18 13 13 11 10 19 42 61 52 35 19 16 30 44 51 64 103 136 134 124 111 109 118 122 115 102 91 94 101 110 126 143 144 140 140 144 149 151 150
101 58 4 359 9 21 20 11 8 15 17 10 7 11 14 13 14 17 18 13 11 15 22 25 18 10 9 10 8 4 2 0 358 357 359 2 5 6 6 7 12 20 25 23 22 22 15 6 360 358 359 4 15 29 41 49 43 358 334 347 2 11 23 177 167 143 112 105 122 135 128 99 90 110 118 113 104 102 113 132 138 127 126 147 161
100 29 2 351 9 26 22 9 11 15 7 0 6 14 16 12 14 19 19 14 13 17 21 18 14 14 15 16 13 6 1 360 359 358 357 358 357 358 1 3 6 14 22 19 13 11 7 357 350 350 355 359 359 353 358 19 34 15 340 337 348 1 360 201 190 176 134 105 118 138 146 138 128 130 134 134 121 107 107 116 121 110 99 104 138
119 17 355 352 18 29 30 18 10 6 353 348 1 9 9 6 5 5 9 15 20 20 13 7 9 17 19 16 14 10 3 360 359 356 355 357 355 352 356 1 1 5 13 13 3 359 359 356 353 358 5 11 13 7 353 346 352 354 345 341 344 346 326 213 198 194 184 150 134 136 142 157 162 155 152 156 156 146 140 140 136 123 106 97 110
218 266 293 325 3 10 354 331 341 347 339 333 345 351 353 352 353 356 5 16 17 15 12 7 7 12 12 8 9 8 3 360 357 351 348 351 352 352 354 356 354 356 1 5 359 358 360 1 7 13 12 8 10 14 10 360 354 351 344 339 338 330 281 212 199 200 205 209 196 170 161 175 188 189 186 184 178 166 159 156 152 144 130 115 115
54 194 235 296 312 318 319 319 331 341 334 323 334 346 353 340 337 345 358 5 2 5 15 19 14 13 11 8 8 4 359 356 354 348 344 346 349 349 348 346 346 351 359 6 7 6 3 3 10 16 11 7 13 19 15 6 357 350 345 342 344 340 283 212 206 208 212 221 227 223 217 218 225 230 229 222 210 200 195 186 170 159 153 140 133
69 293 284 297 300 301 304 308 322 333 325 312 324 344 352 328 325 339 349 352 349 349 357 2 3 5 5 2 1 358 355 353 352 347 343 343 344 344 342 340 341 351 4 9 7 3 359 357 360 3 2 5 19 24 16 9 4 359 353 348 347 344 316 225 219 218 218 223 232 238 243 248 248 246 246 244 230 215 211 204 186 169 159 158 158